KC9EGS Weather Reports


time (UTC)temp
F
wind
direction
speed
knots
gust
knots
rain 1hr
in
rain 24hr
in
rain mn
in
humidity
%
barometer
mb
20260507224651 50 248 6.1 6.1 0.00 0.00 0.00 31 1004.8
20260507224528 50 251 4.3 6.1 0.00 0.00 0.00 32 1004.8
20260507223528 51 243 3.5 6.1 0.00 0.00 0.00 30 1004.8
20260507223150 51 253 0.0 6.1 0.00 0.00 0.00 31 1004.8
20260507222529 50 247 1.7 6.1 0.00 0.00 0.00 32 1005.0
20260507221651 49 258 0.0 6.1 0.00 0.00 0.00 32 1005.0
20260507220529 49 282 0.0 6.1 0.00 0.00 0.00 31 1005.1
20260507220151 49 282 0.0 6.1 0.00 0.00 0.00 31 1005.1
20260507215529 49 282 0.0 13.9 0.00 0.00 0.00 31 1005.2
20260507214651 49 282 0.0 13.9 0.00 0.00 0.00 30 1005.2
20260507214527 49 282 0.0 13.9 0.00 0.00 0.00 30 1005.2
20260507213531 49 257 1.7 13.9 0.00 0.00 0.00 32 1005.2
20260507213151 49 309 0.9 13.9 0.00 0.00 0.00 31 1005.2
20260507212529 49 243 0.0 13.9 0.00 0.00 0.00 31 1005.2
20260507211650 49 267 0.0 13.9 0.00 0.00 0.00 30 1005.2
20260507210527 49 233 5.2 13.9 0.00 0.00 0.00 32 1005.2
20260507210149 49 247 4.3 13.9 0.00 0.00 0.00 32 1005.2
20260507205527 49 241 0.0 7.8 0.00 0.00 0.00 31 1005.4
20260507204651 49 287 4.3 7.8 0.00 0.00 0.00 33 1005.4
20260507204528 49 1 0.0 7.8 0.00 0.00 0.00 31 1005.4
20260507203528 49 234 4.3 7.8 0.00 0.00 0.00 30 1005.4
20260507203150 49 243 5.2 7.8 0.00 0.00 0.00 30 1005.4
20260507202528 48 243 0.0 7.8 0.00 0.00 0.00 33 1005.6
20260507201651 48 244 1.7 7.8 0.00 0.00 0.00 31 1005.6
20260507201528 48 250 2.6 7.8 0.00 0.00 0.00 32 1005.6
20260507200528 48 246 0.0 7.8 0.00 0.00 0.00 35 1006.0
20260507200150 48 236 4.3 7.8 0.00 0.00 0.00 34 1006.0
20260507194649 48 219 0.0 8.7 0.00 0.00 0.00 37 1006.0
20260507194527 48 226 0.9 8.7 0.00 0.00 0.00 40 1006.0
20260507193528 48 236 0.0 8.7 0.00 0.00 0.00 38 1006.1
20260507193149 48 222 0.0 8.7 0.00 0.00 0.00 37 1006.1
20260507192526 47 248 5.2 8.7 0.00 0.00 0.00 38 1006.2
20260507191650 47 239 0.0 8.7 0.00 0.00 0.00 40 1006.2
20260507191528 47 239 2.6 8.7 0.00 0.00 0.00 39 1006.2
20260507190529 46 257 0.0 8.7 0.00 0.00 0.00 38 1006.2
20260507190150 46 268 0.0 8.7 0.00 0.00 0.00 38 1006.2
20260507185529 46 212 0.0 7.0 0.00 0.00 0.00 41 1006.5
20260507184650 46 237 0.0 7.0 0.00 0.00 0.00 41 1006.5
20260507184528 45 237 0.0 7.0 0.00 0.00 0.00 42 1006.5
20260507183527 45 239 1.7 7.0 0.00 0.00 0.00 42 1006.7
20260507183150 45 247 7.0 7.0 0.00 0.00 0.00 42 1006.7
20260507182529 45 251 1.7 7.0 0.00 0.00 0.00 41 1006.7
20260507181650 45 236 0.9 7.0 0.00 0.00 0.00 43 1006.7
20260507181529 45 236 6.1 7.0 0.00 0.00 0.00 43 1006.7
20260507180150 45 239 1.7 7.0 0.00 0.00 0.00 48 1006.7
20260507175528 45 234 0.9 8.7 0.00 0.00 0.00 49 1006.7
20260507174650 45 248 0.0 8.7 0.00 0.00 0.00 45 1006.7
20260507174527 45 248 0.0 8.7 0.00 0.00 0.00 43 1006.7
20260507173526 45 226 0.0 8.7 0.00 0.00 0.00 41 1006.9
20260507173149 44 226 5.2 8.7 0.00 0.00 0.00 46 1006.9
20260507171649 43 0 0.0 8.7 0.00 0.00 0.00 55 1007.3
20260507171526 43 0 0.0 8.7 0.00 0.00 0.00 55 1007.3
20260507170528 43 240 0.9 8.7 0.00 0.00 0.00 48 1007.2
20260507170150 43 250 8.7 8.7 0.00 0.00 0.00 49 1007.2
20260507165528 43 256 4.3 10.4 0.00 0.00 0.00 54 1007.2
20260507164650 43 230 0.0 10.4 0.00 0.00 0.00 54 1007.2
20260507164527 43 247 0.9 10.4 0.00 0.00 0.00 54 1007.2
20260507163526 42 246 2.6 10.4 0.00 0.00 0.00 52 1007.5
20260507163149 43 241 2.6 10.4 0.00 0.00 0.00 54 1007.5
20260507162527 43 248 1.7 10.4 0.00 0.00 0.00 51 1007.6
20260507161650 44 246 0.0 10.4 0.00 0.00 0.00 48 1007.6
20260507161527 44 247 1.7 10.4 0.00 0.00 0.00 48 1007.6
20260507160528 44 239 4.3 10.4 0.00 0.00 0.00 49 1007.7
20260507160149 44 250 3.5 10.4 0.00 0.00 0.00 53 1007.7
20260507155528 43 232 0.0 7.8 0.00 0.00 0.00 54 1007.9
20260507154649 42 274 0.0 7.8 0.00 0.00 0.00 56 1007.9
20260507154527 42 244 0.0 7.8 0.00 0.00 0.00 54 1007.9
20260507153527 42 253 0.9 7.8 0.00 0.00 0.00 53 1008.0
20260507153149 42 258 0.0 7.8 0.00 0.00 0.00 53 1008.0
20260507152529 41 246 0.0 7.8 0.00 0.00 0.00 54 1008.0
20260507151649 41 241 4.3 7.8 0.00 0.00 0.00 56 1008.0
20260507151526 41 213 1.7 7.8 0.00 0.00 0.00 55 1008.0
20260507150527 41 244 4.3 7.8 0.00 0.00 0.00 55 1008.0
20260507150150 41 260 5.2 7.8 0.00 0.00 0.00 55 1008.0
20260507144651 41 244 0.0 5.2 0.00 0.00 0.00 54 1008.1
20260507144526 41 244 0.0 5.2 0.00 0.00 0.00 54 1008.1
20260507143150 41 239 0.9 5.2 0.00 0.00 0.00 59 1008.1
20260507142529 41 239 0.0 5.2 0.00 0.00 0.00 56 1008.3
20260507141649 41 253 0.0 5.2 0.00 0.00 0.00 60 1008.3
20260507141527 40 253 4.3 5.2 0.00 0.00 0.00 59 1008.3
20260507140526 40 256 4.3 5.2 0.00 0.00 0.00 62 1008.4
20260507140150 40 256 0.0 5.2 0.00 0.00 0.00 65 1008.4
20260507135528 39 256 0.0 6.1 0.00 0.00 0.00 64 1008.6
20260507134649 39 260 0.0 6.1 0.00 0.00 0.00 67 1008.6
20260507134527 39 260 0.0 6.1 0.00 0.00 0.00 67 1008.6
20260507133529 38 260 0.0 6.1 0.00 0.00 0.00 68 1008.6
20260507133149 38 260 0.0 6.1 0.00 0.00 0.00 67 1008.6
20260507131650 38 246 0.0 6.1 0.00 0.00 0.00 69 1008.6
20260507131526 38 246 0.0 6.1 0.00 0.00 0.00 69 1008.6
20260507130526 37 243 0.0 6.1 0.00 0.00 0.00 68 1008.9
20260507130149 37 243 1.7 6.1 0.00 0.00 0.00 67 1008.9
20260507124649 37 251 0.0 3.5 0.00 0.00 0.00 69 1008.8
20260507123150 37 236 0.0 3.5 0.00 0.00 0.00 69 1008.7
20260507122528 37 239 0.0 3.5 0.00 0.00 0.00 69 1008.7
20260507121650 37 243 0.0 3.5 0.00 0.00 0.00 69 1008.7
20260507120527 37 243 0.0 3.5 0.00 0.00 0.00 71 1008.6
20260507120150 37 243 0.0 3.5 0.00 0.00 0.00 70 1008.6
20260507114650 37 243 0.0 4.3 0.00 0.00 0.00 70 1008.6
20260507114527 36 243 0.0 4.3 0.00 0.00 0.00 70 1008.6
20260507113527 36 215 0.0 4.3 0.00 0.00 0.00 70 1008.5
20260507113149 36 215 0.0 4.3 0.00 0.00 0.00 70 1008.5
20260507111650 36 224 0.0 4.3 0.00 0.00 0.00 69 1008.3
20260507111526 36 205 0.0 4.3 0.00 0.00 0.00 69 1008.3
20260507110525 36 224 0.0 4.3 0.00 0.00 0.00 69 1008.3
20260507110150 36 226 0.0 4.3 0.00 0.00 0.00 69 1008.3
20260507105528 37 229 0.0 5.2 0.00 0.00 0.00 68 1008.1
20260507104649 37 229 0.0 5.2 0.00 0.00 0.00 67 1008.1
20260507104526 37 233 0.0 5.2 0.00 0.00 0.00 67 1008.1
20260507103528 37 237 0.0 5.2 0.00 0.00 0.00 67 1008.3
20260507103149 37 244 0.0 5.2 0.00 0.00 0.00 67 1008.3
20260507102528 37 246 0.0 5.2 0.00 0.00 0.00 67 1008.3
20260507101649 37 248 0.0 5.2 0.00 0.00 0.00 68 1008.3
20260507101527 37 248 0.0 5.2 0.00 0.00 0.00 68 1008.3
20260507100526 37 247 0.0 5.2 0.00 0.00 0.00 67 1008.2
20260507100150 37 247 0.0 5.2 0.00 0.00 0.00 66 1008.2
20260507095528 37 247 0.0 6.1 0.00 0.00 0.00 66 1008.2
20260507094649 37 248 0.0 6.1 0.00 0.00 0.00 66 1008.2
20260507094527 37 248 2.6 6.1 0.00 0.00 0.00 66 1008.2
20260507093526 37 250 0.0 6.1 0.00 0.00 0.00 66 1008.2
20260507093150 37 250 0.0 6.1 0.00 0.00 0.00 66 1008.2
20260507091650 37 248 0.0 6.1 0.00 0.00 0.00 66 1008.3
20260507091526 37 248 0.0 6.1 0.00 0.00 0.00 65 1008.3
20260507090526 37 248 0.0 6.1 0.00 0.00 0.00 65 1008.3
20260507090148 37 248 0.0 6.1 0.00 0.00 0.00 64 1008.3
20260507084648 37 248 0.0 6.1 0.00 0.00 0.00 65 1008.4
20260507083525 37 246 0.0 6.1 0.00 0.00 0.00 64 1008.4
20260507083149 37 241 0.0 6.1 0.00 0.00 0.00 65 1008.4
20260507081650 37 240 0.0 6.1 0.00 0.00 0.00 65 1008.4
20260507080526 37 243 0.0 6.1 0.00 0.00 0.00 65 1008.4
20260507080149 37 243 0.0 6.1 0.00 0.00 0.00 64 1008.4
20260507075526 37 244 0.0 7.0 0.00 0.00 0.00 64 1008.5
20260507074649 37 244 6.1 7.0 0.00 0.00 0.00 64 1008.5
20260507074526 37 240 1.7 7.0 0.00 0.00 0.00 64 1008.5
20260507073525 38 241 2.6 7.0 0.00 0.00 0.00 64 1008.5
20260507073150 38 241 2.6 7.0 0.00 0.00 0.00 65 1008.5
20260507072525 38 239 0.0 7.0 0.00 0.00 0.00 64 1008.6
20260507071650 38 229 0.9 7.0 0.00 0.00 0.00 64 1008.6
20260507071527 38 243 0.0 7.0 0.00 0.00 0.00 64 1008.6
20260507070526 38 243 0.0 7.0 0.00 0.00 0.00 63 1008.9
20260507070149 38 243 2.6 7.0 0.00 0.00 0.00 63 1008.9
20260507064649 38 246 0.0 6.1 0.00 0.00 0.00 63 1008.9
20260507064526 38 247 3.5 6.1 0.00 0.00 0.00 63 1008.9
20260507063149 38 246 0.0 6.1 0.00 0.00 0.00 64 1009.0
20260507061648 38 247 0.0 6.1 0.00 0.00 0.00 62 1009.1
20260507061525 38 247 5.2 6.1 0.00 0.00 0.00 63 1009.1
20260507060530 38 247 5.2 6.1 0.00 0.00 0.00 63 1009.2
20260507060149 38 241 0.0 6.1 0.00 0.00 0.00 64 1009.2
20260507055527 38 241 4.3 7.0 0.00 0.00 0.00 64 1009.4
20260507054648 38 243 0.0 7.0 0.00 0.00 0.00 63 1009.4
20260507054526 38 241 0.0 7.0 0.00 0.00 0.00 63 1009.4
20260507053527 38 244 0.0 7.0 0.00 0.00 0.00 62 1009.5
20260507053148 38 243 0.0 7.0 0.00 0.00 0.00 63 1009.5
20260507051649 38 241 0.0 7.0 0.00 0.00 0.00 61 1009.6
20260507051526 38 241 0.0 7.0 0.00 0.00 0.00 61 1009.6
20260507050526 38 241 0.0 7.0 0.00 0.00 0.00 62 1009.8
20260507050149 38 241 0.0 7.0 0.00 0.00 0.00 62 1009.8
20260507044648 39 239 0.0 2.6 0.00 0.00 0.00 62 1009.8
20260507044525 39 239 2.6 2.6 0.00 0.00 0.00 62 1009.8
20260507043526 39 234 0.0 2.6 0.00 0.00 0.00 62 1009.8
20260507043150 39 234 0.0 2.6 0.00 0.00 0.00 62 1009.8
20260507042527 39 240 0.0 2.6 0.00 0.00 0.00 62 1009.8
20260507041649 39 240 0.0 2.6 0.00 0.00 0.00 62 1009.8
20260507041527 39 251 0.0 2.6 0.00 0.00 0.00 62 1009.8
20260507040526 39 247 0.0 2.6 0.00 0.00 0.00 60 1009.9
20260507040149 39 247 0.0 2.6 0.00 0.00 0.00 60 1009.9
20260507034649 39 248 0.0 4.3 0.00 0.00 0.00 60 1009.9
20260507034525 39 248 0.0 4.3 0.00 0.00 0.00 60 1009.9
20260507033525 39 248 0.0 4.3 0.00 0.00 0.00 60 1009.9
20260507033149 40 248 0.0 4.3 0.00 0.00 0.00 59 1009.9
20260507032526 40 248 0.0 4.3 0.00 0.00 0.00 59 1009.9
20260507031649 40 243 0.0 4.3 0.00 0.00 0.00 58 1009.9
20260507031526 40 243 1.7 4.3 0.00 0.00 0.00 57 1009.9
20260507030526 40 244 0.0 4.3 0.00 0.00 0.00 58 1010.2
20260507030149 40 244 0.0 4.3 0.00 0.00 0.00 57 1010.2
20260507024648 40 246 0.0 7.0 0.00 0.00 0.00 57 1010.1
20260507024525 40 246 0.0 7.0 0.00 0.00 0.00 56 1010.1
20260507023527 40 247 0.0 7.0 0.00 0.00 0.00 57 1010.1
20260507023149 40 247 0.0 7.0 0.00 0.00 0.00 56 1010.1
20260507022525 40 247 0.0 7.0 0.00 0.00 0.00 57 1010.1
20260507021649 40 247 0.0 7.0 0.00 0.00 0.00 55 1010.1
20260507021526 40 247 0.0 7.0 0.00 0.00 0.00 55 1010.1
20260507020525 40 248 0.0 7.0 0.00 0.00 0.00 54 1010.2
20260507020149 40 248 0.0 7.0 0.00 0.00 0.00 55 1010.2
20260507015527 40 241 0.0 5.2 0.00 0.00 0.00 55 1010.2
20260507014649 40 240 0.0 5.2 0.00 0.00 0.00 55 1010.2
20260507014525 40 240 0.0 5.2 0.00 0.00 0.00 54 1010.2
20260507013526 40 239 4.3 5.2 0.00 0.00 0.00 54 1010.1
20260507013149 40 226 0.0 5.2 0.00 0.00 0.00 54 1010.1
20260507011648 40 246 0.0 5.2 0.00 0.00 0.00 53 1010.0
20260507010526 40 246 0.0 5.2 0.00 0.00 0.00 52 1010.0
20260507010148 40 246 0.0 5.2 0.00 0.00 0.00 53 1010.0
20260507005526 40 246 0.0 8.7 0.00 0.00 0.00 52 1010.0
20260507004649 40 246 0.0 8.7 0.00 0.00 0.00 52 1010.0
20260507004526 40 246 0.0 8.7 0.00 0.00 0.00 54 1010.0
20260507003528 40 243 0.9 8.7 0.00 0.00 0.00 53 1009.9
20260507003148 40 244 0.0 8.7 0.00 0.00 0.00 52 1009.9
20260507001648 40 232 0.0 8.7 0.00 0.00 0.00 51 1010.0
20260507001525 40 232 0.0 8.7 0.00 0.00 0.00 51 1010.0
20260507000526 40 246 0.0 8.7 0.00 0.00 0.00 51 1010.1
20260507000148 40 246 0.0 8.7 0.00 0.00 0.00 51 1010.1
20260506234649 40 241 0.0 11.3 0.00 0.00 0.00 51 1010.1
20260506233526 40 251 0.0 11.3 0.00 0.00 0.00 51 1010.2
20260506233148 40 254 5.2 11.3 0.00 0.00 0.00 52 1010.2
20260506232526 40 319 0.0 11.3 0.00 0.00 0.00 51 1010.2
20260506231647 40 243 0.0 11.3 0.00 0.00 0.00 52 1010.2
20260506231525 40 243 0.0 11.3 0.00 0.00 0.00 51 1010.2
20260506230526 41 258 4.3 11.3 0.00 0.00 0.00 50 1010.2
20260506230148 41 333 0.0 11.3 0.00 0.00 0.00 50 1010.2
20260506225525 41 353 1.7 13.9 0.00 0.00 0.00 51 1010.2